Time,TemperatureF,DewpointF,PressureIn,WindDirection,WindDirectionDegrees,WindSpeedMPH,WindSpeedGustMPH,Humidity,HourlyPrecipIn,Conditions,Clouds,dailyrainin,SoftwareType,DateUTC
2013-11-12 00:02:00,53.8,45.0,30.15,North,351,0.0,0.0,72,0.00,CLR,,0.00,WeatherDisplay:10.37,2013-11-12 08:02:00,
2013-11-12 00:07:00,53.7,44.5,30.15,North,351,0.0,0.0,71,0.00,CLR,,0.00,WeatherDisplay:10.37,2013-11-12 08:07:00,
2013-11-12 00:12:00,53.7,44.5,30.15,North,352,0.0,0.0,71,0.00,CLR,,0.00,WeatherDisplay:10.37,2013-11-12 08:12:00,
2013-11-12 00:17:00,53.6,44.4,30.15,North,351,0.0,0.0,71,0.00,CLR,,0.00,WeatherDisplay:10.37,2013-11-12 08:17:00,
2013-11-12 00:22:00,53.6,44.8,30.15,North,351,0.0,0.0,72,0.00,CLR,,0.00,WeatherDisplay:10.37,2013-11-12 08:22:00,
2013-11-12 00:27:00,53.6,44.8,30.15,North,351,0.0,0.0,72,0.00,CLR,,0.00,WeatherDisplay:10.37,2013-11-12 08:27:00,
2013-11-12 00:32:00,53.6,44.8,30.15,North,351,0.0,0.0,72,0.00,CLR,,0.00,WeatherDisplay:10.37,2013-11-12 08:32:00,
2013-11-12 00:37:00,53.7,44.9,30.15,North,351,0.0,0.0,72,0.00,CLR,,0.00,WeatherDisplay:10.37,2013-11-12 08:37:00,
2013-11-12 00:42:00,53.7,44.5,30.15,North,351,0.0,0.0,71,0.00,CLR,,0.00,WeatherDisplay:10.37,2013-11-12 08:42:00,
2013-11-12 00:47:00,53.7,44.5,30.15,North,351,0.0,0.0,71,0.00,CLR,,0.00,WeatherDisplay:10.37,2013-11-12 08:47:00,
2013-11-12 00:52:00,53.7,44.5,30.15,North,351,0.0,0.0,71,0.00,CLR,,0.00,WeatherDisplay:10.37,2013-11-12 08:52:00,
2013-11-12 00:57:00,53.9,44.3,30.16,North,351,0.0,0.0,70,0.00,CLR,,0.00,WeatherDisplay:10.37,2013-11-12 08:57:00,
2013-11-12 01:02:00,54.1,44.9,30.15,North,351,0.0,0.0,71,0.00,CLR,,0.00,WeatherDisplay:10.37,2013-11-12 09:02:00,
2013-11-12 01:07:00,54.2,44.6,30.16,North,351,0.0,0.0,70,0.00,CLR,,0.00,WeatherDisplay:10.37,2013-11-12 09:07:00,
2013-11-12 01:12:00,54.0,44.1,30.16,North,351,0.0,0.0,69,0.00,CLR,,0.00,WeatherDisplay:10.37,2013-11-12 09:12:00,
2013-11-12 01:17:00,53.9,44.7,30.16,North,351,0.0,0.0,71,0.00,CLR,,0.00,WeatherDisplay:10.37,2013-11-12 09:17:00,
2013-11-12 01:22:00,53.7,44.9,30.15,North,351,0.0,0.0,72,0.00,CLR,,0.00,WeatherDisplay:10.37,2013-11-12 09:22:00,
2013-11-12 01:27:00,53.5,44.7,30.14,North,351,0.0,0.0,72,0.00,CLR,,0.00,WeatherDisplay:10.37,2013-11-12 09:27:00,
2013-11-12 01:32:00,53.2,43.7,30.14,North,352,0.0,0.0,70,0.00,CLR,,0.00,WeatherDisplay:10.37,2013-11-12 09:32:00,
2013-11-12 01:37:00,53.0,43.5,30.15,North,351,0.0,0.0,70,0.00,CLR,,0.00,WeatherDisplay:10.37,2013-11-12 09:37:00,
2013-11-12 01:42:00,52.9,43.4,30.15,North,351,0.0,0.0,70,0.00,CLR,,0.00,WeatherDisplay:10.37,2013-11-12 09:42:00,
2013-11-12 01:47:00,52.8,43.3,30.14,North,351,0.0,0.0,70,0.00,CLR,,0.00,WeatherDisplay:10.37,2013-11-12 09:47:00,
2013-11-12 01:52:00,52.7,43.9,30.14,North,351,0.0,0.0,72,0.00,CLR,,0.00,WeatherDisplay:10.37,2013-11-12 09:52:00,
2013-11-12 01:57:00,52.5,43.4,30.14,North,351,0.0,0.0,71,0.00,CLR,,0.00,WeatherDisplay:10.37,2013-11-12 09:57:00,
2013-11-12 02:02:00,52.4,43.3,30.14,North,351,0.0,0.0,71,0.00,CLR,,0.00,WeatherDisplay:10.37,2013-11-12 10:02:00,
2013-11-12 02:07:00,52.3,43.2,30.14,North,351,0.0,0.0,71,0.00,CLR,,0.00,WeatherDisplay:10.37,2013-11-12 10:07:00,
2013-11-12 02:12:00,52.3,43.5,30.14,North,351,0.0,0.0,72,0.00,CLR,,0.00,WeatherDisplay:10.37,2013-11-12 10:12:00,
2013-11-12 02:17:00,52.3,43.2,30.14,North,351,0.0,0.0,71,0.00,CLR,,0.00,WeatherDisplay:10.37,2013-11-12 10:17:00,
2013-11-12 02:22:00,52.4,42.9,30.15,North,351,0.0,0.0,70,0.00,CLR,,0.00,WeatherDisplay:10.37,2013-11-12 10:22:00,
2013-11-12 02:27:00,52.5,43.4,30.15,North,351,0.0,0.0,71,0.00,CLR,,0.00,WeatherDisplay:10.37,2013-11-12 10:27:00,
2013-11-12 02:32:00,52.5,43.4,30.15,North,351,0.0,0.0,71,0.00,CLR,,0.00,WeatherDisplay:10.37,2013-11-12 10:32:00,
2013-11-12 02:37:00,52.5,44.1,30.14,North,351,0.0,0.0,73,0.00,CLR,,0.00,WeatherDisplay:10.37,2013-11-12 10:37:00,
2013-11-12 02:42:00,52.5,44.1,30.15,North,351,0.0,0.0,73,0.00,CLR,,0.00,WeatherDisplay:10.37,2013-11-12 10:42:00,
2013-11-12 02:47:00,52.4,44.0,30.15,North,351,0.0,0.0,73,0.00,CLR,,0.00,WeatherDisplay:10.37,2013-11-12 10:47:00,
2013-11-12 02:52:00,52.4,44.4,30.14,North,351,0.0,0.0,74,0.00,CLR,,0.00,WeatherDisplay:10.37,2013-11-12 10:52:00,
2013-11-12 02:57:00,52.4,44.4,30.14,North,351,0.0,0.0,74,0.00,CLR,,0.00,WeatherDisplay:10.37,2013-11-12 10:57:00,
2013-11-12 03:02:00,52.3,44.3,30.13,North,351,0.0,0.0,74,0.00,CLR,,0.00,WeatherDisplay:10.37,2013-11-12 11:02:00,
2013-11-12 03:07:00,52.2,43.8,30.13,North,351,0.0,0.0,73,0.00,CLR,,0.00,WeatherDisplay:10.37,2013-11-12 11:07:00,
2013-11-12 03:12:00,52.2,43.4,30.13,North,351,0.0,0.0,72,0.00,CLR,,0.00,WeatherDisplay:10.37,2013-11-12 11:12:00,
2013-11-12 03:17:00,52.4,43.3,30.14,North,351,0.0,0.0,71,0.00,CLR,,0.00,WeatherDisplay:10.37,2013-11-12 11:17:00,
2013-11-12 03:22:00,52.5,43.0,30.13,North,351,0.0,0.0,70,0.00,CLR,,0.00,WeatherDisplay:10.37,2013-11-12 11:22:00,
2013-11-12 03:27:00,52.6,43.8,30.13,North,351,0.0,0.0,72,0.00,CLR,,0.00,WeatherDisplay:10.37,2013-11-12 11:27:00,
2013-11-12 03:32:00,52.6,43.8,30.13,North,351,0.0,0.0,72,0.00,CLR,,0.00,WeatherDisplay:10.37,2013-11-12 11:32:00,
2013-11-12 03:37:00,52.6,43.1,30.13,North,351,0.0,0.0,70,0.00,CLR,,0.00,WeatherDisplay:10.37,2013-11-12 11:37:00,
2013-11-12 03:42:00,52.7,43.2,30.13,North,351,0.0,0.0,70,0.00,CLR,,0.00,WeatherDisplay:10.37,2013-11-12 11:42:00,
2013-11-12 03:47:00,52.8,43.3,30.13,North,351,0.0,0.0,70,0.00,CLR,,0.00,WeatherDisplay:10.37,2013-11-12 11:47:00,
2013-11-12 03:52:00,52.8,43.3,30.12,North,351,0.0,0.0,70,0.00,CLR,,0.00,WeatherDisplay:10.37,2013-11-12 11:52:00,
2013-11-12 03:57:00,52.7,43.2,30.12,North,351,0.0,0.0,70,0.00,CLR,,0.00,WeatherDisplay:10.37,2013-11-12 11:57:00,
2013-11-12 04:02:00,52.6,43.1,30.12,West,280,0.0,0.0,70,0.00,CLR,,0.00,WeatherDisplay:10.37,2013-11-12 12:02:00,
2013-11-12 04:07:00,52.5,43.0,30.12,West,279,0.0,0.0,70,0.00,CLR,,0.00,WeatherDisplay:10.37,2013-11-12 12:07:00,
2013-11-12 04:12:00,52.4,42.9,30.12,West,280,1.2,0.0,70,0.00,CLR,,0.00,WeatherDisplay:10.37,2013-11-12 12:12:00,
2013-11-12 04:17:00,52.2,42.7,30.12,West,279,0.0,0.0,70,0.00,CLR,,0.00,WeatherDisplay:10.37,2013-11-12 12:17:00,
2013-11-12 04:22:00,52.1,42.6,30.12,West,278,0.0,0.0,70,0.00,CLR,,0.00,WeatherDisplay:10.37,2013-11-12 12:22:00,
2013-11-12 04:27:00,52.0,42.5,30.12,West,278,0.0,0.0,70,0.00,CLR,,0.00,WeatherDisplay:10.37,2013-11-12 12:27:00,
2013-11-12 04:32:00,51.9,42.8,30.12,West,278,0.0,0.0,71,0.00,CLR,,0.00,WeatherDisplay:10.37,2013-11-12 12:32:00,
2013-11-12 04:37:00,52.0,42.9,30.12,West,278,0.0,0.0,71,0.00,CLR,,0.00,WeatherDisplay:10.37,2013-11-12 12:37:00,
2013-11-12 04:42:00,51.9,42.8,30.13,West,278,0.0,0.0,71,0.00,CLR,,0.00,WeatherDisplay:10.37,2013-11-12 12:42:00,
2013-11-12 04:47:00,51.9,43.2,30.13,West,279,0.0,0.0,72,0.00,CLR,,0.00,WeatherDisplay:10.37,2013-11-12 12:47:00,
2013-11-12 04:52:00,51.8,43.1,30.14,West,278,0.0,0.0,72,0.00,CLR,,0.00,WeatherDisplay:10.37,2013-11-12 12:52:00,
2013-11-12 04:57:00,51.8,43.1,30.14,West,278,0.0,0.0,72,0.00,CLR,,0.00,WeatherDisplay:10.37,2013-11-12 12:57:00,
2013-11-12 05:02:00,51.8,43.1,30.15,West,278,0.0,0.0,72,0.00,CLR,,0.00,WeatherDisplay:10.37,2013-11-12 13:02:00,
2013-11-12 05:07:00,51.8,43.1,30.15,West,280,0.0,0.0,72,0.00,CLR,,0.00,WeatherDisplay:10.37,2013-11-12 13:07:00,
2013-11-12 05:12:00,51.9,43.2,30.16,West,278,0.0,0.0,72,0.00,CLR,,0.00,WeatherDisplay:10.37,2013-11-12 13:12:00,
2013-11-12 05:17:00,52.1,43.3,30.16,West,278,0.0,0.0,72,0.00,CLR,,0.00,WeatherDisplay:10.37,2013-11-12 13:17:00,
2013-11-12 05:22:00,52.2,43.8,30.16,West,279,0.0,0.0,73,0.00,CLR,,0.00,WeatherDisplay:10.37,2013-11-12 13:22:00,
2013-11-12 05:27:00,52.3,43.5,30.16,West,278,0.0,0.0,72,0.00,CLR,,0.00,WeatherDisplay:10.37,2013-11-12 13:27:00,
2013-11-12 05:32:00,52.4,43.6,30.17,West,279,0.0,0.0,72,0.00,CLR,,0.00,WeatherDisplay:10.37,2013-11-12 13:32:00,
2013-11-12 05:37:00,52.5,43.7,30.17,West,279,0.0,0.0,72,0.00,CLR,,0.00,WeatherDisplay:10.37,2013-11-12 13:37:00,
2013-11-12 05:42:00,52.4,43.6,30.18,West,279,0.0,0.0,72,0.00,CLR,,0.00,WeatherDisplay:10.37,2013-11-12 13:42:00,
2013-11-12 05:47:00,52.4,44.0,30.18,West,278,0.0,0.0,73,0.00,CLR,,0.00,WeatherDisplay:10.37,2013-11-12 13:47:00,
2013-11-12 05:52:00,52.4,43.6,30.18,West,278,0.0,0.0,72,0.00,CLR,,0.00,WeatherDisplay:10.37,2013-11-12 13:52:00,
2013-11-12 05:57:00,52.3,43.5,30.18,West,278,0.0,0.0,72,0.00,CLR,,0.00,WeatherDisplay:10.37,2013-11-12 13:57:00,
2013-11-12 06:02:00,52.3,43.5,30.18,West,280,0.0,0.0,72,0.00,CLR,,0.00,WeatherDisplay:10.37,2013-11-12 14:02:00,
2013-11-12 06:07:00,52.3,43.5,30.19,West,279,0.0,0.0,72,0.00,CLR,,0.00,WeatherDisplay:10.37,2013-11-12 14:07:00,
2013-11-12 06:12:00,52.3,43.2,30.19,West,278,0.0,0.0,71,0.00,CLR,,0.00,WeatherDisplay:10.37,2013-11-12 14:12:00,
2013-11-12 06:17:00,52.3,43.2,30.19,West,279,0.0,0.0,71,0.00,CLR,,0.00,WeatherDisplay:10.37,2013-11-12 14:17:00,
2013-11-12 06:22:00,52.4,43.3,30.20,West,279,0.0,0.0,71,0.00,CLR,,0.00,WeatherDisplay:10.37,2013-11-12 14:22:00,
2013-11-12 06:27:00,52.4,43.3,30.20,West,279,0.0,0.0,71,0.00,CLR,,0.00,WeatherDisplay:10.37,2013-11-12 14:27:00,
2013-11-12 06:32:00,52.6,43.8,30.19,West,279,0.0,0.0,72,0.00,CLR,,0.00,WeatherDisplay:10.37,2013-11-12 14:32:00,
2013-11-12 06:37:00,52.4,43.3,30.20,West,279,0.0,0.0,71,0.00,CLR,,0.00,WeatherDisplay:10.37,2013-11-12 14:37:00,
2013-11-12 06:42:00,52.4,43.3,30.20,West,280,0.0,0.0,71,0.00,CLR,,0.00,WeatherDisplay:10.37,2013-11-12 14:42:00,
2013-11-12 06:47:00,52.4,44.0,30.21,West,279,0.0,0.0,73,0.00,CLR,,0.00,WeatherDisplay:10.37,2013-11-12 14:47:00,
2013-11-12 06:52:00,52.3,43.9,30.21,West,279,0.0,0.0,73,0.00,CLR,,0.00,WeatherDisplay:10.37,2013-11-12 14:52:00,
2013-11-12 06:57:00,52.3,44.3,30.21,West,279,0.0,0.0,74,0.00,CLR,,0.00,WeatherDisplay:10.37,2013-11-12 14:57:00,
2013-11-12 07:02:00,52.3,44.6,30.22,West,279,0.0,0.0,75,0.00,CLR,,0.00,WeatherDisplay:10.37,2013-11-12 15:02:00,
2013-11-12 07:07:00,52.4,44.7,30.22,West,279,0.0,0.0,75,0.00,CLR,,0.00,WeatherDisplay:10.37,2013-11-12 15:07:00,
2013-11-12 07:12:00,52.4,44.7,30.22,West,279,0.0,0.0,75,0.00,CLR,,0.00,WeatherDisplay:10.37,2013-11-12 15:12:00,
2013-11-12 07:17:00,52.5,45.2,30.22,West,279,0.0,0.0,76,0.00,CLR,,0.00,WeatherDisplay:10.37,2013-11-12 15:17:00,
2013-11-12 07:22:00,52.8,45.4,30.22,West,279,0.0,0.0,76,0.00,CLR,,0.00,WeatherDisplay:10.37,2013-11-12 15:22:00,
2013-11-12 07:27:00,53.0,46.0,30.23,West,280,0.0,0.0,77,0.00,CLR,,0.00,WeatherDisplay:10.37,2013-11-12 15:27:00,
2013-11-12 07:32:00,53.3,45.9,30.23,West,279,0.0,0.0,76,0.00,CLR,,0.00,WeatherDisplay:10.37,2013-11-12 15:32:00,
2013-11-12 07:37:00,53.6,45.9,30.23,West,279,0.0,0.0,75,0.00,CLR,,0.00,WeatherDisplay:10.37,2013-11-12 15:37:00,
2013-11-12 07:42:00,53.9,46.2,30.23,West,280,0.0,0.0,75,0.00,CLR,,0.00,WeatherDisplay:10.37,2013-11-12 15:42:00,
2013-11-12 07:47:00,54.2,46.1,30.23,West,280,0.0,0.0,74,0.00,CLR,,0.00,WeatherDisplay:10.37,2013-11-12 15:47:00,
2013-11-12 07:52:00,54.4,45.9,30.24,West,280,0.0,0.0,73,0.00,CLR,,0.00,WeatherDisplay:10.37,2013-11-12 15:52:00,
2013-11-12 07:57:00,54.7,45.8,30.24,West,280,0.0,0.0,72,0.00,CLR,,0.00,WeatherDisplay:10.37,2013-11-12 15:57:00,
2013-11-12 08:02:00,55.0,45.0,30.24,West,280,0.0,0.0,69,0.00,CLR,,0.00,WeatherDisplay:10.37,2013-11-12 16:02:00,
2013-11-12 08:07:00,55.4,46.9,30.23,West,279,0.0,0.0,73,0.00,CLR,,0.00,WeatherDisplay:10.37,2013-11-12 16:07:00,
2013-11-12 08:12:00,55.6,46.7,30.23,West,279,0.0,0.0,72,0.00,CLR,,0.00,WeatherDisplay:10.37,2013-11-12 16:12:00,
2013-11-12 08:17:00,55.8,46.5,30.23,West,279,0.0,0.0,71,0.00,CLR,,0.00,WeatherDisplay:10.37,2013-11-12 16:17:00,
2013-11-12 08:22:00,56.2,45.4,30.23,West,279,0.0,0.0,67,0.00,CLR,,0.00,WeatherDisplay:10.37,2013-11-12 16:22:00,
2013-11-12 08:27:00,56.7,45.9,30.24,West,280,0.0,0.0,67,0.00,CLR,,0.00,WeatherDisplay:10.37,2013-11-12 16:27:00,
2013-11-12 08:32:00,57.0,45.7,30.24,West,279,0.0,0.0,66,0.00,CLR,,0.00,WeatherDisplay:10.37,2013-11-12 16:32:00,
2013-11-12 08:37:00,57.4,46.1,30.23,West,279,0.0,0.0,66,0.00,CLR,,0.00,WeatherDisplay:10.37,2013-11-12 16:37:00,
2013-11-12 08:42:00,57.8,46.1,30.24,West,279,0.0,0.0,65,0.00,CLR,,0.00,WeatherDisplay:10.37,2013-11-12 16:42:00,
2013-11-12 08:47:00,58.2,46.1,30.24,West,280,0.0,0.0,64,0.00,CLR,,0.00,WeatherDisplay:10.37,2013-11-12 16:47:00,
2013-11-12 08:52:00,58.5,46.4,30.25,West,279,0.0,0.0,64,0.00,CLR,,0.00,WeatherDisplay:10.37,2013-11-12 16:52:00,
2013-11-12 08:57:00,58.9,46.3,30.25,West,272,0.0,0.0,63,0.00,CLR,,0.00,WeatherDisplay:10.37,2013-11-12 16:57:00,
2013-11-12 09:02:00,59.2,46.6,30.25,West,273,0.0,0.0,63,0.00,CLR,,0.00,WeatherDisplay:10.37,2013-11-12 17:02:00,
2013-11-12 09:07:00,59.5,46.5,30.25,West,272,0.0,0.0,62,0.00,CLR,,0.00,WeatherDisplay:10.37,2013-11-12 17:07:00,
2013-11-12 09:12:00,60.0,46.5,30.25,West,281,1.2,1.2,61,0.00,CLR,,0.00,WeatherDisplay:10.37,2013-11-12 17:12:00,
2013-11-12 09:17:00,60.5,47.0,30.25,West,281,0.0,0.0,61,0.00,CLR,,0.00,WeatherDisplay:10.37,2013-11-12 17:17:00,
2013-11-12 09:22:00,60.9,47.4,30.25,West,281,0.0,0.0,61,0.00,CLR,,0.00,WeatherDisplay:10.37,2013-11-12 17:22:00,
2013-11-12 09:27:00,61.3,46.8,30.25,WNW,284,0.0,0.0,59,0.00,CLR,,0.00,WeatherDisplay:10.37,2013-11-12 17:27:00,
2013-11-12 09:32:00,61.5,47.0,30.26,WNW,284,0.0,0.0,59,0.00,CLR,,0.00,WeatherDisplay:10.37,2013-11-12 17:32:00,
2013-11-12 09:37:00,61.8,48.2,30.26,WNW,284,0.0,0.0,61,0.00,CLR,,0.00,WeatherDisplay:10.37,2013-11-12 17:37:00,
2013-11-12 09:42:00,61.8,47.3,30.25,WNW,284,0.0,0.0,59,0.00,CLR,,0.00,WeatherDisplay:10.37,2013-11-12 17:42:00,
2013-11-12 09:47:00,61.9,47.4,30.26,WNW,283,0.0,0.0,59,0.00,CLR,,0.00,WeatherDisplay:10.37,2013-11-12 17:47:00,
2013-11-12 09:52:00,62.1,48.0,30.26,WNW,283,0.0,0.0,60,0.00,CLR,,0.00,WeatherDisplay:10.37,2013-11-12 17:52:00,
2013-11-12 09:57:00,62.2,47.7,30.26,WNW,283,0.0,0.0,59,0.00,CLR,,0.00,WeatherDisplay:10.37,2013-11-12 17:57:00,
2013-11-12 10:02:00,62.4,47.0,30.25,ENE,69,1.2,1.2,57,0.00,CLR,,0.00,WeatherDisplay:10.37,2013-11-12 18:02:00,
2013-11-12 10:07:00,62.5,46.6,30.26,ENE,73,0.0,0.0,56,0.00,CLR,,0.00,WeatherDisplay:10.37,2013-11-12 18:07:00,
2013-11-12 10:12:00,62.8,47.8,30.26,ENE,73,0.0,0.0,58,0.00,CLR,,0.00,WeatherDisplay:10.37,2013-11-12 18:12:00,
2013-11-12 10:17:00,63.0,47.5,30.26,ENE,73,0.0,0.0,57,0.00,CLR,,0.00,WeatherDisplay:10.37,2013-11-12 18:17:00,
2013-11-12 10:22:00,63.1,48.5,30.25,ENE,73,0.0,0.0,59,0.00,CLR,,0.00,WeatherDisplay:10.37,2013-11-12 18:22:00,
2013-11-12 10:27:00,63.3,48.3,30.25,ENE,73,0.0,0.0,58,0.00,CLR,,0.00,WeatherDisplay:10.37,2013-11-12 18:27:00,
2013-11-12 10:32:00,63.3,47.3,30.25,ENE,73,0.0,0.0,56,0.00,CLR,,0.00,WeatherDisplay:10.37,2013-11-12 18:32:00,
2013-11-12 10:37:00,63.5,47.5,30.25,ENE,74,0.0,0.0,56,0.00,CLR,,0.00,WeatherDisplay:10.37,2013-11-12 18:37:00,
2013-11-12 10:42:00,63.7,47.2,30.25,ENE,73,0.0,0.0,55,0.00,CLR,,0.00,WeatherDisplay:10.37,2013-11-12 18:42:00,
2013-11-12 10:47:00,64.0,48.0,30.24,ENE,74,0.0,0.0,56,0.00,CLR,,0.00,WeatherDisplay:10.37,2013-11-12 18:47:00,
2013-11-12 10:52:00,64.3,47.8,30.24,ENE,74,0.0,0.0,55,0.00,CLR,,0.00,WeatherDisplay:10.37,2013-11-12 18:52:00,
2013-11-12 10:57:00,64.7,47.2,30.25,ENE,72,0.0,0.0,53,0.00,CLR,,0.00,WeatherDisplay:10.37,2013-11-12 18:57:00,
2013-11-12 11:02:00,65.1,47.5,30.25,ENE,73,0.0,0.0,53,0.00,CLR,,0.00,WeatherDisplay:10.37,2013-11-12 19:02:00,
2013-11-12 11:07:00,65.5,47.4,30.25,SE,145,1.2,0.0,52,0.00,CLR,,0.00,WeatherDisplay:10.37,2013-11-12 19:07:00,
2013-11-12 11:12:00,65.6,48.0,30.25,SW,232,1.2,1.2,53,0.00,CLR,,0.00,WeatherDisplay:10.37,2013-11-12 19:12:00,
2013-11-12 11:17:00,65.6,47.0,30.25,South,180,1.2,1.2,51,0.00,CLR,,0.00,WeatherDisplay:10.37,2013-11-12 19:17:00,
2013-11-12 11:22:00,65.7,47.1,30.24,SW,222,1.2,0.0,51,0.00,CLR,,0.00,WeatherDisplay:10.37,2013-11-12 19:22:00,
2013-11-12 11:27:00,65.7,47.6,30.24,SW,228,1.2,0.0,52,0.00,CLR,,0.00,WeatherDisplay:10.37,2013-11-12 19:27:00,
2013-11-12 11:32:00,65.8,47.7,30.24,South,184,0.0,0.0,52,0.00,CLR,,0.00,WeatherDisplay:10.37,2013-11-12 19:32:00,
2013-11-12 11:37:00,66.0,48.4,30.24,SSW,204,1.2,1.2,53,0.00,CLR,,0.00,WeatherDisplay:10.37,2013-11-12 19:37:00,
2013-11-12 11:42:00,65.9,48.8,30.24,West,259,0.0,0.0,54,0.00,CLR,,0.00,WeatherDisplay:10.37,2013-11-12 19:42:00,
2013-11-12 11:47:00,65.5,48.9,30.24,WSW,249,1.2,1.2,55,0.00,CLR,,0.00,WeatherDisplay:10.37,2013-11-12 19:47:00,
2013-11-12 11:52:00,65.4,48.8,30.23,SW,215,1.2,1.2,55,0.00,CLR,,0.00,WeatherDisplay:10.37,2013-11-12 19:52:00,
2013-11-12 11:57:00,65.6,50.0,30.23,SW,235,0.0,0.0,57,0.00,CLR,,0.00,WeatherDisplay:10.37,2013-11-12 19:57:00,
2013-11-12 12:02:00,65.8,50.1,30.22,SW,232,1.2,1.2,57,0.00,CLR,,0.00,WeatherDisplay:10.37,2013-11-12 20:02:00,
2013-11-12 12:07:00,66.0,50.3,30.22,WSW,238,2.3,2.3,57,0.00,CLR,,0.00,WeatherDisplay:10.37,2013-11-12 20:07:00,
2013-11-12 12:12:00,66.3,50.6,30.22,SW,225,0.0,0.0,57,0.00,CLR,,0.00,WeatherDisplay:10.37,2013-11-12 20:12:00,
2013-11-12 12:17:00,66.6,50.4,30.21,WSW,246,1.2,1.2,56,0.00,CLR,,0.00,WeatherDisplay:10.37,2013-11-12 20:17:00,
2013-11-12 12:22:00,66.6,48.9,30.20,SW,219,0.0,0.0,53,0.00,CLR,,0.00,WeatherDisplay:10.37,2013-11-12 20:22:00,
2013-11-12 12:27:00,66.6,48.9,30.21,East,94,1.2,1.2,53,0.00,CLR,,0.00,WeatherDisplay:10.37,2013-11-12 20:27:00,
2013-11-12 12:32:00,66.6,48.9,30.21,SSW,194,0.0,0.0,53,0.00,CLR,,0.00,WeatherDisplay:10.37,2013-11-12 20:32:00,
2013-11-12 12:37:00,66.6,49.4,30.21,SW,228,0.0,0.0,54,0.00,CLR,,0.00,WeatherDisplay:10.37,2013-11-12 20:37:00,
2013-11-12 12:42:00,66.2,49.1,30.20,ESE,114,1.2,1.2,54,0.00,CLR,,0.00,WeatherDisplay:10.37,2013-11-12 20:42:00,
2013-11-12 12:47:00,65.7,48.6,30.20,SW,229,0.0,0.0,54,0.00,CLR,,0.00,WeatherDisplay:10.37,2013-11-12 20:47:00,
2013-11-12 12:52:00,65.4,48.8,30.19,SW,229,0.0,0.0,55,0.00,CLR,,0.00,WeatherDisplay:10.37,2013-11-12 20:52:00,
2013-11-12 12:57:00,65.1,49.5,30.18,SW,229,0.0,0.0,57,0.00,CLR,,0.00,WeatherDisplay:10.37,2013-11-12 20:57:00,
2013-11-12 13:02:00,64.9,49.3,30.18,SW,229,0.0,0.0,57,0.00,CLR,,0.00,WeatherDisplay:10.37,2013-11-12 21:02:00,
2013-11-12 13:07:00,64.9,49.8,30.17,SW,229,0.0,0.0,58,0.00,CLR,,0.00,WeatherDisplay:10.37,2013-11-12 21:07:00,
2013-11-12 13:12:00,65.0,50.3,30.16,SW,229,0.0,0.0,59,0.00,CLR,,0.00,WeatherDisplay:10.37,2013-11-12 21:12:00,
2013-11-12 13:17:00,65.2,49.1,30.17,SSW,202,0.0,0.0,56,0.00,CLR,,0.00,WeatherDisplay:10.37,2013-11-12 21:17:00,
2013-11-12 13:22:00,65.3,49.7,30.17,SE,139,1.2,1.2,57,0.00,CLR,,0.00,WeatherDisplay:10.37,2013-11-12 21:22:00,
2013-11-12 13:27:00,65.5,48.9,30.17,SE,140,0.0,0.0,55,0.00,CLR,,0.00,WeatherDisplay:10.37,2013-11-12 21:27:00,
2013-11-12 13:32:00,65.6,49.0,30.17,SW,235,1.2,0.0,55,0.00,FEW,,0.00,WeatherDisplay:10.37,2013-11-12 21:32:00,
2013-11-12 13:37:00,65.6,48.5,30.16,SW,219,0.0,0.0,54,0.00,FEW,,0.00,WeatherDisplay:10.37,2013-11-12 21:37:00,
2013-11-12 13:42:00,65.6,49.0,30.16,SW,217,0.0,0.0,55,0.00,FEW,,0.00,WeatherDisplay:10.37,2013-11-12 21:42:00,
2013-11-12 13:47:00,65.7,49.6,30.16,SW,218,0.0,0.0,56,0.00,FEW,,0.00,WeatherDisplay:10.37,2013-11-12 21:47:00,
2013-11-12 13:52:00,65.6,48.5,30.16,SSW,212,1.2,1.2,54,0.00,FEW,,0.00,WeatherDisplay:10.37,2013-11-12 21:52:00,
2013-11-12 13:57:00,65.5,48.9,30.16,SSW,210,1.2,0.0,55,0.00,FEW,,0.00,WeatherDisplay:10.37,2013-11-12 21:57:00,
2013-11-12 14:02:00,65.4,48.8,30.15,SSW,207,0.0,0.0,55,0.00,CLR,,0.00,WeatherDisplay:10.37,2013-11-12 22:02:00,
2013-11-12 14:07:00,65.4,49.3,30.15,SSW,207,0.0,0.0,56,0.00,CLR,,0.00,WeatherDisplay:10.37,2013-11-12 22:07:00,
2013-11-12 14:12:00,65.4,49.8,30.15,SSW,207,0.0,0.0,57,0.00,CLR,,0.00,WeatherDisplay:10.37,2013-11-12 22:12:00,
2013-11-12 14:17:00,65.4,49.8,30.15,SSW,207,0.0,0.0,57,0.00,CLR,,0.00,WeatherDisplay:10.37,2013-11-12 22:17:00,
2013-11-12 14:22:00,65.4,49.8,30.15,SSW,207,0.0,0.0,57,0.00,CLR,,0.00,WeatherDisplay:10.37,2013-11-12 22:22:00,
2013-11-12 14:27:00,65.6,50.0,30.15,SSW,206,0.0,0.0,57,0.00,CLR,,0.00,WeatherDisplay:10.37,2013-11-12 22:27:00,
2013-11-12 14:32:00,65.9,49.8,30.15,SW,218,1.2,1.2,56,0.00,CLR,,0.00,WeatherDisplay:10.37,2013-11-12 22:32:00,
2013-11-12 14:37:00,66.2,49.6,30.15,SSW,212,0.0,0.0,55,0.00,CLR,,0.00,WeatherDisplay:10.37,2013-11-12 22:37:00,
2013-11-12 14:42:00,66.4,49.2,30.15,SW,215,1.2,0.0,54,0.00,CLR,,0.00,WeatherDisplay:10.37,2013-11-12 22:42:00,
2013-11-12 14:47:00,66.6,49.4,30.15,SW,215,0.0,0.0,54,0.00,CLR,,0.00,WeatherDisplay:10.37,2013-11-12 22:47:00,
2013-11-12 14:52:00,66.7,49.5,30.16,SW,215,1.2,0.0,54,0.00,CLR,,0.00,WeatherDisplay:10.37,2013-11-12 22:52:00,
2013-11-12 14:57:00,66.7,49.5,30.15,SSW,204,1.2,0.0,54,0.00,CLR,,0.00,WeatherDisplay:10.37,2013-11-12 22:57:00,
2013-11-12 15:02:00,66.7,50.0,30.16,SSW,204,0.0,0.0,55,0.00,CLR,,0.00,WeatherDisplay:10.37,2013-11-12 23:02:00,
2013-11-12 15:07:00,66.7,50.0,30.16,SSW,204,0.0,0.0,55,0.00,CLR,,0.00,WeatherDisplay:10.37,2013-11-12 23:07:00,
2013-11-12 15:12:00,66.7,50.0,30.16,SSW,204,0.0,0.0,55,0.00,CLR,,0.00,WeatherDisplay:10.37,2013-11-12 23:12:00,
2013-11-12 15:17:00,66.7,50.0,30.16,SSW,204,0.0,0.0,55,0.00,CLR,,0.00,WeatherDisplay:10.37,2013-11-12 23:17:00,
2013-11-12 15:22:00,66.6,49.9,30.16,SW,235,0.0,0.0,55,0.00,CLR,,0.00,WeatherDisplay:10.37,2013-11-12 23:22:00,
2013-11-12 15:27:00,66.5,49.3,30.16,WNW,285,0.0,0.0,54,0.00,CLR,,0.00,WeatherDisplay:10.37,2013-11-12 23:27:00,
2013-11-12 15:32:00,66.4,49.7,30.16,WNW,295,1.2,1.2,55,0.00,CLR,,0.00,WeatherDisplay:10.37,2013-11-12 23:32:00,
2013-11-12 15:37:00,66.3,49.6,30.16,WNW,295,0.0,0.1,55,0.00,CLR,,0.00,WeatherDisplay:10.37,2013-11-12 23:37:00,
2013-11-12 15:42:00,66.1,49.9,30.16,NNW,347,1.2,1.2,56,0.00,CLR,,0.00,WeatherDisplay:10.37,2013-11-12 23:42:00,
2013-11-12 15:47:00,65.9,49.8,30.16,North,354,1.2,1.2,56,0.00,FEW,,0.00,WeatherDisplay:10.37,2013-11-12 23:47:00,
2013-11-12 15:52:00,65.7,50.0,30.16,NNW,330,0.0,0.0,57,0.00,FEW,,0.00,WeatherDisplay:10.37,2013-11-12 23:52:00,
2013-11-12 15:57:00,65.5,50.3,30.16,North,6,1.2,1.2,58,0.00,FEW,,0.00,WeatherDisplay:10.37,2013-11-12 23:57:00,
2013-11-12 16:02:00,65.4,50.2,30.16,NNE,33,2.3,2.3,58,0.00,BKN,,0.00,WeatherDisplay:10.37,2013-11-13 00:02:00,
2013-11-12 16:07:00,65.2,50.0,30.16,ENE,61,1.2,1.2,58,0.00,BKN,,0.00,WeatherDisplay:10.37,2013-11-13 00:07:00,
2013-11-12 16:12:00,65.1,50.0,30.16,NW,314,1.2,0.0,58,0.00,BKN,,0.00,WeatherDisplay:10.37,2013-11-13 00:12:00,
2013-11-12 16:17:00,65.1,50.0,30.16,North,351,2.3,2.3,58,0.00,BKN,,0.00,WeatherDisplay:10.37,2013-11-13 00:17:00,
2013-11-12 16:22:00,64.9,49.8,30.17,NW,308,2.3,2.3,58,0.00,BKN,,0.00,WeatherDisplay:10.37,2013-11-13 00:22:00,
2013-11-12 16:27:00,64.8,49.7,30.16,NNE,15,2.3,2.3,58,0.00,BKN,,0.00,WeatherDisplay:10.37,2013-11-13 00:27:00,
2013-11-12 16:32:00,64.7,49.6,30.17,North,350,2.3,2.3,58,0.00,BKN,,0.00,WeatherDisplay:10.37,2013-11-13 00:32:00,
2013-11-12 16:37:00,64.5,49.8,30.16,NNW,341,1.2,0.0,59,0.00,BKN,,0.00,WeatherDisplay:10.37,2013-11-13 00:37:00,
2013-11-12 16:42:00,64.3,49.7,30.16,ENE,72,1.2,1.2,59,0.00,BKN,,0.00,WeatherDisplay:10.37,2013-11-13 00:42:00,
2013-11-12 16:47:00,64.1,49.5,30.16,NE,36,1.2,0.0,59,0.00,BKN,,0.00,WeatherDisplay:10.37,2013-11-13 00:47:00,
2013-11-12 16:52:00,64.0,49.8,30.16,NNW,333,1.2,0.0,60,0.00,BKN,,0.00,WeatherDisplay:10.37,2013-11-13 00:52:00,
2013-11-12 16:57:00,63.8,49.6,30.16,North,6,0.0,0.0,60,0.00,BKN,,0.00,WeatherDisplay:10.37,2013-11-13 00:57:00,
2013-11-12 17:02:00,63.7,50.0,30.16,ENE,60,1.2,1.2,61,0.00,OVC,,0.00,WeatherDisplay:10.37,2013-11-13 01:02:00,
2013-11-12 17:07:00,63.6,49.9,30.16,ENE,62,0.0,0.0,61,0.00,OVC,,0.00,WeatherDisplay:10.37,2013-11-13 01:07:00,
2013-11-12 17:12:00,63.4,50.1,30.16,ENE,63,0.0,0.0,62,0.00,OVC,,0.00,WeatherDisplay:10.37,2013-11-13 01:12:00,
2013-11-12 17:17:00,63.2,50.0,30.17,NE,34,1.2,0.0,62,0.00,OVC,,0.00,WeatherDisplay:10.37,2013-11-13 01:17:00,
2013-11-12 17:22:00,63.1,49.9,30.16,NE,56,1.2,0.0,62,0.00,OVC,,0.00,WeatherDisplay:10.37,2013-11-13 01:22:00,
2013-11-12 17:27:00,62.9,49.7,30.16,North,8,2.3,2.3,62,0.00,OVC,,0.00,WeatherDisplay:10.37,2013-11-13 01:27:00,
2013-11-12 17:32:00,62.8,50.0,30.17,North,6,0.0,0.0,63,0.00,OVC,,0.00,WeatherDisplay:10.37,2013-11-13 01:32:00,
2013-11-12 17:37:00,62.6,49.8,30.17,North,6,1.2,1.2,63,0.00,OVC,,0.00,WeatherDisplay:10.37,2013-11-13 01:37:00,
2013-11-12 17:42:00,62.4,49.6,30.17,North,356,0.0,0.0,63,0.00,OVC,,0.00,WeatherDisplay:10.37,2013-11-13 01:42:00,
2013-11-12 17:47:00,62.3,50.0,30.17,NNW,342,0.0,0.0,64,0.00,FEW,,0.00,WeatherDisplay:10.37,2013-11-13 01:47:00,
2013-11-12 17:52:00,62.1,49.8,30.17,NNW,330,1.2,0.0,64,0.00,FEW,,0.00,WeatherDisplay:10.37,2013-11-13 01:52:00,
2013-11-12 17:57:00,62.0,49.7,30.17,North,353,1.2,1.2,64,0.00,FEW,,0.00,WeatherDisplay:10.37,2013-11-13 01:57:00,
2013-11-12 18:02:00,61.9,49.6,30.17,NNW,345,0.0,0.0,64,0.00,CLR,,0.00,WeatherDisplay:10.37,2013-11-13 02:02:00,
2013-11-12 18:07:00,61.7,49.8,30.17,NNW,346,1.2,0.0,65,0.00,CLR,,0.00,WeatherDisplay:10.37,2013-11-13 02:07:00,
2013-11-12 18:12:00,61.5,49.6,30.17,NNW,345,0.0,0.0,65,0.00,CLR,,0.00,WeatherDisplay:10.37,2013-11-13 02:12:00,
2013-11-12 18:17:00,61.3,49.4,30.18,NNW,345,0.0,0.1,65,0.00,CLR,,0.00,WeatherDisplay:10.37,2013-11-13 02:17:00,
2013-11-12 18:22:00,61.1,49.2,30.18,NNW,346,0.0,0.0,65,0.00,CLR,,0.00,WeatherDisplay:10.37,2013-11-13 02:22:00,
2013-11-12 18:27:00,60.9,49.5,30.18,NNW,346,0.0,0.0,66,0.00,CLR,,0.00,WeatherDisplay:10.37,2013-11-13 02:27:00,
2013-11-12 18:32:00,60.8,49.8,30.18,NNW,345,0.0,0.0,67,0.00,SCT,,0.00,WeatherDisplay:10.37,2013-11-13 02:32:00,
2013-11-12 18:37:00,60.6,49.6,30.18,NNW,345,0.0,0.0,67,0.00,SCT,,0.00,WeatherDisplay:10.37,2013-11-13 02:37:00,
2013-11-12 18:42:00,60.4,50.2,30.18,NNW,345,0.0,0.0,69,0.00,SCT,,0.00,WeatherDisplay:10.37,2013-11-13 02:42:00,
2013-11-12 18:47:00,60.2,49.6,30.19,NNW,345,0.0,0.0,68,0.00,BKN,,0.00,WeatherDisplay:10.37,2013-11-13 02:47:00,
2013-11-12 18:52:00,60.0,49.4,30.19,NNW,345,0.0,0.0,68,0.00,BKN,,0.00,WeatherDisplay:10.37,2013-11-13 02:52:00,
2013-11-12 18:57:00,59.8,49.6,30.19,NNW,345,0.0,0.0,69,0.00,BKN,,0.00,WeatherDisplay:10.37,2013-11-13 02:57:00,
2013-11-12 19:02:00,59.6,49.4,30.19,NNW,345,0.0,0.0,69,0.00,SCT,,0.00,WeatherDisplay:10.37,2013-11-13 03:02:00,
2013-11-12 19:07:00,59.5,49.7,30.20,NNW,345,0.0,0.0,70,0.00,SCT,,0.00,WeatherDisplay:10.37,2013-11-13 03:07:00,
2013-11-12 19:12:00,59.2,49.4,30.20,NNW,345,0.0,0.0,70,0.00,SCT,,0.00,WeatherDisplay:10.37,2013-11-13 03:12:00,
2013-11-12 19:17:00,58.8,49.8,30.20,NNW,345,0.0,0.0,72,0.00,SCT,,0.00,WeatherDisplay:10.37,2013-11-13 03:17:00,
2013-11-12 19:22:00,58.4,49.4,30.20,NNW,345,0.0,0.0,72,0.00,SCT,,0.00,WeatherDisplay:10.37,2013-11-13 03:22:00,
2013-11-12 19:27:00,58.0,49.4,30.20,NNW,345,0.0,0.0,73,0.00,SCT,,0.00,WeatherDisplay:10.37,2013-11-13 03:27:00,
2013-11-12 19:32:00,57.6,49.0,30.20,NNW,345,0.0,0.0,73,0.00,CLR,,0.00,WeatherDisplay:10.37,2013-11-13 03:32:00,
2013-11-12 19:37:00,57.4,48.8,30.20,NNW,345,0.0,0.0,73,0.00,CLR,,0.00,WeatherDisplay:10.37,2013-11-13 03:37:00,
2013-11-12 19:42:00,57.3,48.3,30.20,NNW,345,0.0,0.0,72,0.00,CLR,,0.00,WeatherDisplay:10.37,2013-11-13 03:42:00,
2013-11-12 19:47:00,57.3,48.3,30.20,NNW,345,0.0,0.0,72,0.00,CLR,,0.00,WeatherDisplay:10.37,2013-11-13 03:47:00,
2013-11-12 19:52:00,57.4,48.4,30.20,NNW,345,0.0,0.0,72,0.00,CLR,,0.00,WeatherDisplay:10.37,2013-11-13 03:52:00,
2013-11-12 19:57:00,57.5,48.5,30.20,NNW,345,0.0,0.0,72,0.00,CLR,,0.00,WeatherDisplay:10.37,2013-11-13 03:57:00,
2013-11-12 20:02:00,57.4,48.4,30.20,NNW,345,0.0,0.0,72,0.00,CLR,,0.00,WeatherDisplay:10.37,2013-11-13 04:02:00,
2013-11-12 20:07:00,57.2,48.3,30.20,NNW,345,0.0,0.0,72,0.00,CLR,,0.00,WeatherDisplay:10.37,2013-11-13 04:07:00,
2013-11-12 20:12:00,56.9,48.0,30.20,NNW,345,0.0,0.0,72,0.00,CLR,,0.00,WeatherDisplay:10.37,2013-11-13 04:12:00,
2013-11-12 20:17:00,56.6,48.0,30.20,NNW,345,0.0,0.0,73,0.00,CLR,,0.00,WeatherDisplay:10.37,2013-11-13 04:17:00,
2013-11-12 20:22:00,56.3,47.8,30.20,NNW,346,0.0,0.0,73,0.00,CLR,,0.00,WeatherDisplay:10.37,2013-11-13 04:22:00,
2013-11-12 20:27:00,56.0,47.8,30.20,NNW,346,0.0,0.0,74,0.00,CLR,,0.00,WeatherDisplay:10.37,2013-11-13 04:27:00,
2013-11-12 20:32:00,55.7,47.5,30.20,NNW,345,0.0,0.0,74,0.00,CLR,,0.00,WeatherDisplay:10.37,2013-11-13 04:32:00,
2013-11-12 20:37:00,55.3,47.5,30.20,NNW,345,0.0,0.0,75,0.00,CLR,,0.00,WeatherDisplay:10.37,2013-11-13 04:37:00,
2013-11-12 20:42:00,55.1,48.0,30.21,NNW,345,0.0,0.0,77,0.00,CLR,,0.00,WeatherDisplay:10.37,2013-11-13 04:42:00,
2013-11-12 20:47:00,55.0,47.9,30.21,NNW,345,0.0,0.0,77,0.00,CLR,,0.00,WeatherDisplay:10.37,2013-11-13 04:47:00,
2013-11-12 20:52:00,55.2,47.8,30.21,NNW,345,0.0,0.0,76,0.00,CLR,,0.00,WeatherDisplay:10.37,2013-11-13 04:52:00,
2013-11-12 20:57:00,55.1,47.7,30.21,NNW,345,0.0,0.0,76,0.00,CLR,,0.00,WeatherDisplay:10.37,2013-11-13 04:57:00,
2013-11-12 21:01:00,54.9,47.5,30.21,NNW,345,0.0,0.0,76,0.00,CLR,,0.00,WeatherDisplay:10.37,2013-11-13 05:01:00,
2013-11-12 21:06:00,54.6,47.5,30.22,NNW,345,0.0,0.0,77,0.00,CLR,,0.00,WeatherDisplay:10.37,2013-11-13 05:06:00,
2013-11-12 21:11:00,54.3,47.2,30.22,NNW,345,0.0,0.0,77,0.00,CLR,,0.00,WeatherDisplay:10.37,2013-11-13 05:11:00,
2013-11-12 21:16:00,54.1,47.4,30.22,NNW,345,0.0,0.0,78,0.00,CLR,,0.00,WeatherDisplay:10.37,2013-11-13 05:16:00,
2013-11-12 21:21:00,54.0,47.6,30.22,NNW,345,0.0,0.0,79,0.00,CLR,,0.00,WeatherDisplay:10.37,2013-11-13 05:21:00,
2013-11-12 21:26:00,54.1,47.7,30.22,NNW,345,0.0,0.0,79,0.00,CLR,,0.00,WeatherDisplay:10.37,2013-11-13 05:26:00,
2013-11-12 21:31:00,54.1,47.7,30.22,NNW,345,0.0,0.0,79,0.00,CLR,,0.00,WeatherDisplay:10.37,2013-11-13 05:31:00,
2013-11-12 21:36:00,54.1,47.7,30.22,NNW,345,0.0,0.0,79,0.00,CLR,,0.00,WeatherDisplay:10.37,2013-11-13 05:36:00,
2013-11-12 21:41:00,54.0,47.6,30.23,NNW,345,0.0,0.0,79,0.00,CLR,,0.00,WeatherDisplay:10.37,2013-11-13 05:41:00,
2013-11-12 21:46:00,54.0,47.6,30.22,NNW,345,0.0,0.0,79,0.00,SCT,,0.00,WeatherDisplay:10.37,2013-11-13 05:46:00,
2013-11-12 21:51:00,54.0,47.6,30.22,NNW,345,0.0,0.0,79,0.00,SCT,,0.00,WeatherDisplay:10.37,2013-11-13 05:51:00,
2013-11-12 21:56:00,54.0,47.6,30.23,NNW,346,0.0,0.0,79,0.00,SCT,,0.00,WeatherDisplay:10.37,2013-11-13 05:56:00,
2013-11-12 22:01:00,54.0,47.6,30.23,NNW,345,0.0,0.0,79,0.00,FEW,,0.00,WeatherDisplay:10.37,2013-11-13 06:01:00,
2013-11-12 22:06:00,53.9,47.5,30.23,NNW,345,0.0,0.0,79,0.00,FEW,,0.00,WeatherDisplay:10.37,2013-11-13 06:06:00,
2013-11-12 22:11:00,53.6,47.2,30.23,NNW,345,0.0,0.0,79,0.00,FEW,,0.00,WeatherDisplay:10.37,2013-11-13 06:11:00,
2013-11-12 22:16:00,53.4,47.0,30.23,NNW,346,0.0,0.0,79,0.00,FEW,,0.00,WeatherDisplay:10.37,2013-11-13 06:16:00,
2013-11-12 22:21:00,53.0,46.7,30.23,NNW,345,0.0,0.0,79,0.00,FEW,,0.00,WeatherDisplay:10.37,2013-11-13 06:21:00,
2013-11-12 22:26:00,52.6,46.6,30.23,NNW,346,0.0,0.0,80,0.00,FEW,,0.00,WeatherDisplay:10.37,2013-11-13 06:26:00,
2013-11-12 22:31:00,52.3,46.3,30.23,NNW,345,0.0,0.0,80,0.00,CLR,,0.00,WeatherDisplay:10.37,2013-11-13 06:31:00,
2013-11-12 22:36:00,52.0,46.7,30.23,NNW,346,0.0,0.0,82,0.00,CLR,,0.00,WeatherDisplay:10.37,2013-11-13 06:36:00,
2013-11-12 22:41:00,51.7,46.7,30.23,NNW,346,0.0,0.0,83,0.00,CLR,,0.00,WeatherDisplay:10.37,2013-11-13 06:41:00,
2013-11-12 22:46:00,51.5,46.8,30.24,NNW,345,0.0,0.0,84,0.00,CLR,,0.00,WeatherDisplay:10.37,2013-11-13 06:46:00,
2013-11-12 22:51:00,51.4,46.7,30.24,NNW,346,0.0,0.0,84,0.00,CLR,,0.00,WeatherDisplay:10.37,2013-11-13 06:51:00,
2013-11-12 22:56:00,51.4,46.7,30.23,NNW,345,0.0,0.0,84,0.00,CLR,,0.00,WeatherDisplay:10.37,2013-11-13 06:56:00,
2013-11-12 23:01:00,51.4,46.7,30.23,NNW,346,0.0,0.0,84,0.00,CLR,,0.00,WeatherDisplay:10.37,2013-11-13 07:01:00,
2013-11-12 23:06:00,51.3,46.6,30.23,NNW,346,0.0,0.0,84,0.00,CLR,,0.00,WeatherDisplay:10.37,2013-11-13 07:06:00,
2013-11-12 23:11:00,51.2,46.5,30.24,NNW,345,0.0,0.0,84,0.00,CLR,,0.00,WeatherDisplay:10.37,2013-11-13 07:11:00,
2013-11-12 23:16:00,51.2,46.5,30.24,NNW,345,0.0,0.0,84,0.00,CLR,,0.00,WeatherDisplay:10.37,2013-11-13 07:16:00,
2013-11-12 23:21:00,51.2,46.5,30.24,NNW,345,0.0,0.0,84,0.00,CLR,,0.00,WeatherDisplay:10.37,2013-11-13 07:21:00,
2013-11-12 23:26:00,51.1,46.4,30.24,NNW,345,0.0,0.0,84,0.00,CLR,,0.00,WeatherDisplay:10.37,2013-11-13 07:26:00,
2013-11-12 23:31:00,51.0,46.6,30.23,NNW,345,0.0,0.0,85,0.00,BKN,,0.00,WeatherDisplay:10.37,2013-11-13 07:31:00,
2013-11-12 23:36:00,50.8,46.1,30.23,NNW,345,0.0,0.0,84,0.00,BKN,,0.00,WeatherDisplay:10.37,2013-11-13 07:36:00,
2013-11-12 23:41:00,50.6,46.3,30.23,NNW,345,0.0,0.0,85,0.00,BKN,,0.00,WeatherDisplay:10.37,2013-11-13 07:41:00,
2013-11-12 23:46:00,50.6,46.6,30.23,NNW,345,0.0,0.0,86,0.00,BKN,,0.00,WeatherDisplay:10.37,2013-11-13 07:46:00,
2013-11-12 23:51:00,50.4,46.1,30.23,NNW,346,0.0,0.0,85,0.00,BKN,,0.00,WeatherDisplay:10.37,2013-11-13 07:51:00,
2013-11-12 23:56:00,50.2,45.9,30.23,NNW,345,0.0,0.0,85,0.00,BKN,,0.00,WeatherDisplay:10.37,2013-11-13 07:56:00,